QPF
0.00 0.00 0.00 0.00 0.00 0.01 0.02 0.03 0.03 0.02 0.02 0.02 0.03 0.05 0.05 0.05 0.05 0.04 0.03 0.02 0.01 0.02 0.02 0.02 0.02 0.02 0.01 0.01 0.02 0.03 0.06 0.10 0.08 0.06 0.06 0.05 0.06 0.05 0.04 0.04 0.04 0.05 0.06 0.05
0.00 0.00 0.00 0.00 0.00 0.01 0.01 0.02 0.02 0.02 0.02 0.02 0.02 0.03 0.04 0.04 0.03 0.03 0.03 0.02 0.01 0.01 0.02 0.02 0.02 0.02 0.02 0.01 0.01 0.02 0.04 0.07 0.06 0.05 0.07 0.06 0.06 0.06 0.05 0.05 0.03 0.03 0.04 0.04
0.01 0.00 0.00 0.01 0.01 0.01 0.01 0.01 0.02 0.02 0.02 0.01 0.01 0.02 0.02 0.02 0.02 0.02 0.03 0.02 0.01 0.01 0.01 0.01 0.01 0.02 0.02 0.02 0.02 0.02 0.02 0.05 0.05 0.04 0.05 0.05 0.07 0.07 0.07 0.06 0.05 0.03 0.02 0.03
0.02 0.01 0.01 0.00 0.00 0.00 0.00 0.01 0.01 0.01 0.01 0.01 0.01 0.02 0.02 0.02 0.01 0.01 0.02 0.02 0.02 0.01 0.01 0.01 0.01 0.01 0.02 0.02 0.02 0.02 0.02 0.03 0.04 0.04 0.04 0.04 0.04 0.05 0.06 0.07 0.08 0.06 0.04 0.02
0.03 0.01 0.00 0.00 0.00 0.00 0.01 0.01 0.01 0.01 0.00 0.00 0.01 0.01 0.01 0.01 0.01 0.01 0.01 0.01 0.01 0.01 0.01 0.01 0.01 0.01 0.01 0.02 0.02 0.02 0.02 0.02 0.04 0.04 0.03 0.03 0.03 0.03 0.04 0.05 0.06 0.06 0.06 0.05
0.03 0.02 0.00 0.00 0.00 0.00 0.00 0.01 0.00 0.00 0.00 0.01 0.01 0.01 0.01 0.01 0.00 0.00 0.00 0.00 0.01 0.01 0.01 0.01 0.01 0.02 0.02 0.02 0.02 0.02 0.02 0.02 0.02 0.04 0.03 0.03 0.02 0.03 0.03 0.04 0.04 0.05 0.05 0.05
0.02 0.02 0.00 0.00 0.00 0.00 0.00 0.00 0.00 0.00 0.00 0.01 0.01 0.01 0.01 0.01 0.01 0.00 0.00 0.00 0.00 0.01 0.01 0.01 0.01 0.02 0.02 0.02 0.02 0.02 0.02 0.01 0.01 0.02 0.03 0.03 0.02 0.03 0.03 0.03 0.04 0.04 0.04 0.04
0.01 0.02 0.00 0.00 0.00 0.00 0.00 0.00 0.00 0.00 0.00 0.01 0.01 0.01 0.01 0.01 0.01 0.00 0.00 0.00 0.00 0.01 0.01 0.01 0.01 0.01 0.03 0.03 0.02 0.02 0.01 0.01 0.01 0.02 0.02 0.03 0.02 0.03 0.03 0.03 0.03 0.03 0.03 0.04
0.00 0.00 0.00 0.00 0.00 0.00 0.01 0.01 0.00 0.00 0.01 0.01 0.01 0.01 0.01 0.01 0.01 0.00 0.00 0.00 0.00 0.01 0.01 0.01 0.01 0.01 0.02 0.03 0.03 0.02 0.02 0.01 0.01 0.02 0.02 0.03 0.03 0.03 0.03 0.03 0.03 0.03 0.03 0.03
0.00 0.00 0.00 0.00 0.00 0.00 0.01 0.01 0.01 0.01 0.01 0.01 0.01 0.01 0.01 0.01 0.01 0.01 0.00 0.00 0.01 0.01 0.01 0.01 0.01 0.01 0.01 0.02 0.03 0.04 0.03 0.02 0.02 0.02 0.03 0.03 0.03 0.03 0.02 0.02 0.02 0.01 0.01 0.01
0.00 0.00 0.00 0.00 0.00 0.00 0.00 0.01 0.01 0.01 0.01 0.01 0.01 0.01 0.01 0.01 0.01 0.01 0.00 0.01 0.01 0.01 0.01 0.01 0.01 0.01 0.01 0.02 0.03 0.04 0.04 0.03 0.03 0.03 0.03 0.03 0.03 0.02 0.02 0.02 0.01 0.01 0.01 0.01
0.00 0.00 0.00 0.00 0.00 0.00 0.01 0.01 0.01 0.02 0.02 0.02 0.02 0.01 0.02 0.01 0.01 0.01 0.01 0.01 0.01 0.01 0.02 0.01 0.01 0.02 0.02 0.02 0.03 0.04 0.05 0.04 0.04 0.03 0.04 0.03 0.03 0.03 0.04 0.03 0.02 0.02 0.02 0.02
0.00 0.00 0.00 0.00 0.00 0.00 0.01 0.01 0.02 0.02 0.02 0.02 0.02 0.02 0.02 0.02 0.02 0.01 0.01 0.00 0.01 0.01 0.02 0.02 0.01 0.01 0.02 0.02 0.03 0.04 0.04 0.04 0.04 0.03 0.04 0.04 0.04 0.03 0.03 0.03 0.03 0.02 0.02 0.02
0.00 0.00 0.00 0.00 0.00 0.00 0.01 0.01 0.01 0.02 0.02 0.02 0.02 0.02 0.02 0.02 0.02 0.01 0.01 0.00 0.01 0.01 0.02 0.03 0.02 0.01 0.02 0.02 0.03 0.04 0.05 0.04 0.04 0.04 0.03 0.03 0.04 0.03 0.03 0.02 0.02 0.02 0.02 0.02
0.00 0.00 0.00 0.00 0.00 0.00 0.00 0.01 0.01 0.01 0.02 0.02 0.02 0.02 0.02 0.02 0.02 0.01 0.01 0.00 0.01 0.01 0.02 0.03 0.03 0.02 0.02 0.03 0.03 0.04 0.05 0.05 0.03 0.03 0.04 0.03 0.03 0.04 0.03 0.02 0.02 0.02 0.02 0.02
0.00 0.00 0.00 0.00 0.00 0.00 0.00 0.00 0.01 0.02 0.02 0.02 0.02 0.02 0.02 0.01 0.01 0.01 0.01 0.01 0.01 0.02 0.02 0.03 0.04 0.04 0.04 0.03 0.03 0.03 0.05 0.06 0.05 0.03 0.03 0.03 0.03 0.03 0.03 0.03 0.02 0.02 0.02 0.03
0.00 0.00 0.00 0.00 0.00 0.00 0.00 0.00 0.01 0.01 0.02 0.01 0.02 0.02 0.02 0.01 0.01 0.01 0.01 0.01 0.01 0.02 0.03 0.04 0.04 0.04 0.05 0.04 0.04 0.04 0.05 0.05 0.05 0.05 0.04 0.04 0.04 0.03 0.03 0.03 0.02 0.02 0.03 0.03
0.01 0.01 0.01 0.01 0.01 0.01 0.01 0.01 0.01 0.01 0.01 0.01 0.01 0.01 0.01 0.01 0.01 0.01 0.01 0.01 0.01 0.02 0.03 0.04 0.05 0.05 0.06 0.06 0.06 0.06 0.05 0.04 0.05 0.06 0.05 0.05 0.05 0.04 0.03 0.03 0.02 0.02 0.03 0.03
0.00 0.00 0.00 0.01 0.01 0.01 0.01 0.01 0.01 0.01 0.01 0.01 0.01 0.01 0.01 0.01 0.01 0.01 0.01 0.01 0.01 0.02 0.03 0.04 0.05 0.06 0.06 0.08 0.09 0.07 0.05 0.04 0.05 0.06 0.05 0.06 0.07 0.06 0.04 0.03 0.03 0.03 0.03 0.03
0.00 0.00 0.00 0.00 0.01 0.01 0.01 0.01 0.01 0.01 0.01 0.01 0.01 0.01 0.01 0.01 0.01 0.01 0.01 0.01 0.01 0.02 0.03 0.04 0.05 0.06 0.07 0.09 0.10 0.09 0.06 0.05 0.05 0.06 0.05 0.06 0.07 0.07 0.06 0.05 0.04 0.04 0.04 0.03
0.00 0.00 0.00 0.00 0.01 0.01 0.01 0.01 0.01 0.01 0.00 0.01 0.01 0.01 0.01 0.01 0.01 0.02 0.02 0.01 0.01 0.02 0.03 0.05 0.06 0.07 0.09 0.10 0.11 0.10 0.08 0.07 0.06 0.05 0.06 0.06 0.07 0.08 0.08 0.06 0.05 0.05 0.05 0.04
0.00 0.00 0.00 0.00 0.01 0.01 0.01 0.01 0.01 0.01 0.01 0.01 0.01 0.01 0.01 0.01 0.01 0.02 0.02 0.02 0.02 0.02 0.03 0.05 0.06 0.08 0.10 0.11 0.11 0.11 0.10 0.09 0.07 0.05 0.05 0.05 0.06 0.07 0.07 0.07 0.05 0.04 0.05 0.05
0.00 0.00 0.00 0.01 0.01 0.01 0.01 0.01 0.01 0.01 0.01 0.01 0.01 0.01 0.01 0.01 0.02 0.02 0.02 0.03 0.02 0.02 0.03 0.04 0.06 0.08 0.10 0.11 0.11 0.10 0.10 0.09 0.08 0.05 0.05 0.05 0.06 0.05 0.05 0.05 0.04 0.04 0.04 0.05
0.00 0.00 0.01 0.01 0.01 0.01 0.01 0.01 0.01 0.01 0.01 0.01 0.01 0.01 0.01 0.01 0.01 0.01 0.02 0.03 0.03 0.03 0.04 0.05 0.06 0.08 0.09 0.09 0.10 0.10 0.10 0.10 0.08 0.06 0.05 0.06 0.06 0.05 0.04 0.04 0.04 0.04 0.04 0.04
0.01 0.01 0.01 0.01 0.01 0.01 0.01 0.01 0.01 0.01 0.01 0.01 0.01 0.01 0.01 0.01 0.02 0.01 0.02 0.02 0.03 0.04 0.04 0.04 0.05 0.06 0.07 0.08 0.08 0.10 0.10 0.10 0.09 0.07 0.06 0.06 0.05 0.04 0.04 0.04 0.04 0.03 0.03 0.04
0.01 0.01 0.01 0.01 0.01 0.01 0.01 0.01 0.01 0.01 0.01 0.01 0.01 0.01 0.01 0.01 0.02 0.02 0.02 0.02 0.03 0.04 0.04 0.03 0.04 0.04 0.05 0.07 0.08 0.09 0.10 0.11 0.10 0.08 0.07 0.06 0.05 0.05 0.04 0.04 0.03 0.03 0.03 0.03
0.01 0.01 0.01 0.01 0.01 0.01 0.01 0.02 0.02 0.01 0.01 0.01 0.01 0.01 0.01 0.02 0.02 0.03 0.03 0.03 0.03 0.03 0.04 0.04 0.04 0.04 0.05 0.06 0.08 0.08 0.09 0.10 0.10 0.08 0.07 0.07 0.06 0.05 0.05 0.04 0.04 0.03 0.03 0.03
MSLP
1021.12 1020.67 1020.16 1019.60 1019.01 1018.38 1017.72 1017.02 1016.30 1015.55 1014.77 1013.97 1013.16 1012.34 1011.54 1010.76 1010.03 1009.33 1008.66 1008.02 1007.38 1006.71 1006.00 1005.24 1004.41 1003.53 1002.64 1001.78 1001.00 1000.35 999.88 999.62 999.60 999.81 1000.24 1000.84 1001.59 1002.43 1003.31 1004.21 1005.08 1005.92 1006.71 1007.43
1020.70 1020.28 1019.80 1019.28 1018.72 1018.12 1017.50 1016.86 1016.19 1015.48 1014.74 1013.96 1013.16 1012.34 1011.52 1010.73 1009.97 1009.25 1008.59 1007.96 1007.35 1006.74 1006.10 1005.41 1004.66 1003.86 1003.03 1002.20 1001.41 1000.73 1000.20 999.85 999.72 999.82 1000.14 1000.65 1001.32 1002.10 1002.95 1003.83 1004.70 1005.55 1006.33 1007.06
1020.18 1019.76 1019.27 1018.74 1018.20 1017.64 1017.07 1016.50 1015.91 1015.30 1014.65 1013.95 1013.21 1012.43 1011.63 1010.84 1010.06 1009.32 1008.63 1007.99 1007.38 1006.79 1006.20 1005.56 1004.88 1004.15 1003.37 1002.57 1001.80 1001.09 1000.50 1000.08 999.86 999.85 1000.06 1000.48 1001.07 1001.79 1002.60 1003.46 1004.33 1005.17 1005.97 1006.71
1019.61 1019.13 1018.61 1018.06 1017.50 1016.97 1016.47 1015.99 1015.52 1015.03 1014.51 1013.94 1013.30 1012.60 1011.84 1011.06 1010.28 1009.51 1008.78 1008.11 1007.48 1006.89 1006.31 1005.71 1005.07 1004.38 1003.65 1002.88 1002.11 1001.38 1000.75 1000.26 999.95 999.84 999.96 1000.28 1000.80 1001.47 1002.24 1003.09 1003.95 1004.80 1005.61 1006.36
1018.98 1018.44 1017.86 1017.27 1016.71 1016.20 1015.76 1015.38 1015.03 1014.69 1014.32 1013.89 1013.38 1012.77 1012.08 1011.33 1010.55 1009.76 1008.99 1008.28 1007.61 1007.00 1006.40 1005.81 1005.20 1004.54 1003.83 1003.08 1002.31 1001.57 1000.90 1000.35 999.96 999.77 999.80 1000.05 1000.51 1001.12 1001.87 1002.70 1003.56 1004.43 1005.26 1006.03
1018.29 1017.69 1017.06 1016.43 1015.87 1015.40 1015.02 1014.73 1014.50 1014.30 1014.08 1013.78 1013.39 1012.89 1012.27 1011.55 1010.78 1009.97 1009.18 1008.42 1007.72 1007.07 1006.46 1005.87 1005.26 1004.61 1003.92 1003.18 1002.41 1001.65 1000.94 1000.34 999.89 999.63 999.59 999.77 1000.17 1000.75 1001.48 1002.30 1003.17 1004.05 1004.90 1005.70
1017.49 1016.86 1016.20 1015.57 1015.03 1014.59 1014.28 1014.08 1013.96 1013.87 1013.76 1013.59 1013.30 1012.88 1012.32 1011.64 1010.88 1010.08 1009.27 1008.49 1007.77 1007.10 1006.47 1005.87 1005.26 1004.62 1003.93 1003.19 1002.41 1001.63 1000.89 1000.24 999.74 999.42 999.32 999.45 999.80 1000.35 1001.06 1001.88 1002.77 1003.67 1004.56 1005.41
1016.55 1015.93 1015.30 1014.71 1014.21 1013.84 1013.59 1013.47 1013.42 1013.42 1013.39 1013.29 1013.07 1012.71 1012.20 1011.57 1010.84 1010.05 1009.25 1008.48 1007.75 1007.08 1006.46 1005.86 1005.25 1004.61 1003.92 1003.17 1002.37 1001.56 1000.79 1000.09 999.54 999.16 999.01 999.10 999.42 999.95 1000.65 1001.48 1002.38 1003.32 1004.25 1005.16
1015.45 1014.90 1014.35 1013.84 1013.43 1013.14 1012.97 1012.91 1012.93 1012.97 1012.99 1012.92 1012.74 1012.41 1011.94 1011.35 1010.65 1009.90 1009.14 1008.40 1007.71 1007.07 1006.46 1005.88 1005.27 1004.63 1003.92 1003.15 1002.33 1001.48 1000.66 999.92 999.32 998.90 998.71 998.76 999.06 999.58 1000.28 1001.12 1002.05 1003.03 1004.02 1004.99
1014.21 1013.77 1013.36 1012.99 1012.70 1012.51 1012.43 1012.43 1012.48 1012.55 1012.57 1012.52 1012.34 1012.03 1011.59 1011.03 1010.39 1009.70 1009.00 1008.32 1007.69 1007.09 1006.52 1005.96 1005.36 1004.71 1003.98 1003.17 1002.31 1001.41 1000.55 999.76 999.11 998.65 998.43 998.46 998.75 999.27 999.98 1000.85 1001.82 1002.85 1003.90 1004.94
1012.86 1012.60 1012.35 1012.15 1012.02 1011.96 1011.96 1012.02 1012.10 1012.17 1012.19 1012.12 1011.93 1011.63 1011.21 1010.70 1010.12 1009.51 1008.90 1008.30 1007.74 1007.20 1006.67 1006.12 1005.51 1004.84 1004.07 1003.22 1002.30 1001.35 1000.43 999.60 998.92 998.44 998.20 998.23 998.52 999.06 999.80 1000.71 1001.73 1002.82 1003.94 1005.05
1011.51 1011.43 1011.37 1011.36 1011.39 1011.47 1011.57 1011.68 1011.79 1011.85 1011.85 1011.76 1011.57 1011.27 1010.89 1010.43 1009.92 1009.40 1008.88 1008.37 1007.88 1007.39 1006.88 1006.33 1005.70 1004.98 1004.16 1003.24 1002.26 1001.26 1000.29 999.43 998.73 998.25 998.03 998.09 998.41 998.99 999.79 1000.75 1001.83 1002.99 1004.17 1005.37
1010.23 1010.33 1010.48 1010.65 1010.84 1011.04 1011.23 1011.40 1011.53 1011.59 1011.58 1011.48 1011.28 1011.01 1010.66 1010.26 1009.83 1009.39 1008.96 1008.52 1008.08 1007.62 1007.11 1006.52 1005.84 1005.05 1004.15 1003.16 1002.11 1001.06 1000.07 999.21 998.52 998.08 997.91 998.03 998.42 999.08 999.94 1000.98 1002.14 1003.37 1004.63 1005.89
1009.13 1009.40 1009.70 1010.03 1010.36 1010.67 1010.94 1011.16 1011.31 1011.38 1011.37 1011.27 1011.09 1010.84 1010.54 1010.21 1009.85 1009.48 1009.10 1008.71 1008.29 1007.82 1007.26 1006.61 1005.85 1004.96 1003.97 1002.90 1001.80 1000.72 999.73 998.89 998.27 997.90 997.83 998.05 998.56 999.32 1000.29 1001.42 1002.66 1003.96 1005.29 1006.61
1008.28 1008.67 1009.10 1009.55 1009.98 1010.37 1010.70 1010.96 1011.13 1011.21 1011.21 1011.13 1010.97 1010.76 1010.52 1010.24 1009.94 1009.62 1009.27 1008.89 1008.44 1007.91 1007.28 1006.52 1005.65 1004.65 1003.57 1002.43 1001.28 1000.20 999.25 998.49 997.97 997.73 997.80 998.17 998.82 999.71 1000.81 1002.04 1003.38 1004.76 1006.14 1007.51
1007.74 1008.20 1008.71 1009.22 1009.71 1010.15 1010.51 1010.79 1010.98 1011.07 1011.09 1011.03 1010.91 1010.75 1010.55 1010.32 1010.06 1009.76 1009.41 1008.98 1008.47 1007.85 1007.10 1006.22 1005.21 1004.11 1002.93 1001.74 1000.58 999.54 998.67 998.03 997.66 997.59 997.84 998.39 999.21 1000.26 1001.49 1002.85 1004.27 1005.72 1007.15 1008.55
1007.50 1008.00 1008.53 1009.07 1009.57 1010.02 1010.38 1010.66 1010.85 1010.96 1010.99 1010.96 1010.88 1010.76 1010.60 1010.40 1010.16 1009.85 1009.46 1008.97 1008.36 1007.61 1006.73 1005.71 1004.58 1003.37 1002.13 1000.91 999.78 998.81 998.06 997.58 997.40 997.53 997.99 998.74 999.75 1000.96 1002.33 1003.79 1005.29 1006.79 1008.25 1009.66
1007.57 1008.07 1008.59 1009.10 1009.58 1009.99 1010.33 1010.59 1010.77 1010.87 1010.92 1010.92 1010.87 1010.78 1010.64 1010.46 1010.21 1009.87 1009.42 1008.84 1008.12 1007.24 1006.22 1005.07 1003.83 1002.55 1001.27 1000.06 999.00 998.15 997.55 997.25 997.28 997.64 998.31 999.26 1000.44 1001.81 1003.29 1004.83 1006.39 1007.92 1009.39 1010.80
1007.91 1008.37 1008.85 1009.31 1009.73 1010.08 1010.36 1010.58 1010.72 1010.82 1010.86 1010.87 1010.84 1010.77 1010.65 1010.46 1010.19 1009.80 1009.28 1008.61 1007.78 1006.78 1005.65 1004.40 1003.09 1001.76 1000.49 999.34 998.38 997.67 997.25 997.16 997.40 997.96 998.83 999.96 1001.29 1002.77 1004.34 1005.94 1007.52 1009.06 1010.52 1011.89
1008.43 1008.85 1009.27 1009.66 1009.99 1010.26 1010.47 1010.62 1010.72 1010.78 1010.81 1010.81 1010.78 1010.72 1010.59 1010.39 1010.09 1009.65 1009.07 1008.32 1007.40 1006.32 1005.11 1003.80 1002.47 1001.15 999.93 998.87 998.04 997.49 997.25 997.36 997.79 998.54 999.57 1000.84 1002.28 1003.84 1005.44 1007.06 1008.63 1010.15 1011.57 1012.91
1009.06 1009.43 1009.78 1010.08 1010.31 1010.49 1010.61 1010.68 1010.72 1010.74 1010.73 1010.72 1010.68 1010.60 1010.46 1010.24 1009.90 1009.43 1008.80 1007.99 1007.02 1005.89 1004.66 1003.35 1002.04 1000.78 999.65 998.71 998.03 997.65 997.59 997.87 998.46 999.36 1000.51 1001.87 1003.36 1004.94 1006.55 1008.15 1009.69 1011.15 1012.53 1013.81
1009.69 1010.01 1010.28 1010.49 1010.63 1010.70 1010.73 1010.72 1010.69 1010.65 1010.60 1010.55 1010.49 1010.39 1010.24 1009.99 1009.63 1009.13 1008.47 1007.65 1006.66 1005.54 1004.33 1003.07 1001.83 1000.67 999.67 998.88 998.36 998.13 998.23 998.65 999.38 1000.37 1001.59 1002.99 1004.49 1006.06 1007.63 1009.17 1010.65 1012.06 1013.37 1014.61
1010.21 1010.48 1010.68 1010.80 1010.84 1010.82 1010.76 1010.67 1010.56 1010.46 1010.37 1010.28 1010.19 1010.07 1009.89 1009.64 1009.27 1008.76 1008.10 1007.29 1006.33 1005.26 1004.12 1002.95 1001.83 1000.80 999.94 999.31 998.95 998.88 999.11 999.64 1000.45 1001.50 1002.74 1004.13 1005.61 1007.12 1008.63 1010.10 1011.52 1012.86 1014.12 1015.30
1010.54 1010.75 1010.88 1010.91 1010.87 1010.76 1010.62 1010.45 1010.29 1010.14 1010.00 1009.88 1009.76 1009.62 1009.43 1009.17 1008.80 1008.31 1007.68 1006.92 1006.03 1005.04 1004.00 1002.96 1001.98 1001.11 1000.41 999.94 999.72 999.78 1000.12 1000.74 1001.59 1002.66 1003.90 1005.25 1006.67 1008.12 1009.55 1010.95 1012.29 1013.57 1014.78 1015.93
1010.58 1010.73 1010.79 1010.75 1010.64 1010.46 1010.26 1010.04 1009.83 1009.64 1009.48 1009.33 1009.20 1009.05 1008.86 1008.61 1008.26 1007.81 1007.23 1006.54 1005.74 1004.87 1003.96 1003.07 1002.25 1001.54 1001.01 1000.68 1000.60 1000.77 1001.20 1001.86 1002.74 1003.80 1005.00 1006.31 1007.66 1009.03 1010.39 1011.72 1013.00 1014.23 1015.40 1016.53
1010.27 1010.36 1010.36 1010.26 1010.10 1009.88 1009.64 1009.39 1009.16 1008.96 1008.79 1008.65 1008.52 1008.38 1008.22 1007.99 1007.69 1007.29 1006.79 1006.18 1005.50 1004.76 1004.00 1003.27 1002.60 1002.06 1001.68 1001.50 1001.53 1001.79 1002.28 1002.98 1003.86 1004.90 1006.06 1007.30 1008.59 1009.89 1011.18 1012.45 1013.68 1014.87 1016.02 1017.13
1009.61 1009.64 1009.58 1009.45 1009.25 1009.02 1008.78 1008.54 1008.32 1008.14 1008.00 1007.88 1007.78 1007.68 1007.55 1007.38 1007.13 1006.81 1006.40 1005.90 1005.34 1004.74 1004.13 1003.55 1003.05 1002.66 1002.42 1002.36 1002.50 1002.84 1003.37 1004.09 1004.96 1005.97 1007.08 1008.27 1009.49 1010.73 1011.97 1013.19 1014.38 1015.55 1016.68 1017.78
Thickness
5383 5386 5381 5379 5379 5378 5373 5379 5384 5399 5402 5409 5407 5406 5409 5413 5419 5426 5434 5441 5451 5462 5473 5484 5497 5511 5524 5537 5550 5562 5573 5585 5594 5601 5609 5615 5619 5622 5624 5625 5626 5626 5624 5624
5379 5384 5381 5381 5387 5386 5384 5384 5385 5388 5396 5403 5402 5402 5404 5407 5412 5418 5426 5433 5443 5453 5463 5475 5487 5500 5513 5527 5540 5551 5564 5576 5586 5593 5600 5608 5613 5616 5618 5620 5621 5621 5621 5621
5378 5382 5374 5383 5391 5388 5387 5387 5383 5387 5394 5397 5396 5397 5399 5402 5406 5411 5418 5426 5435 5444 5454 5466 5479 5491 5504 5516 5530 5542 5555 5566 5576 5585 5593 5600 5605 5609 5611 5614 5615 5616 5617 5618
5365 5365 5361 5396 5389 5383 5380 5383 5382 5382 5386 5389 5389 5392 5396 5399 5401 5406 5412 5420 5428 5437 5446 5458 5470 5483 5496 5508 5521 5533 5545 5557 5567 5576 5585 5592 5597 5602 5605 5608 5610 5612 5614 5614
5354 5359 5376 5389 5384 5377 5371 5377 5381 5379 5381 5384 5384 5388 5396 5398 5398 5401 5406 5413 5421 5429 5439 5451 5463 5475 5488 5501 5513 5525 5537 5547 5557 5567 5576 5583 5590 5595 5599 5602 5604 5606 5609 5610
5347 5346 5364 5390 5380 5372 5366 5371 5380 5375 5375 5376 5376 5383 5393 5392 5392 5396 5401 5407 5414 5424 5433 5444 5456 5467 5480 5493 5504 5516 5527 5538 5548 5558 5568 5576 5583 5588 5592 5595 5598 5600 5603 5605
5343 5345 5368 5380 5369 5362 5358 5373 5371 5369 5368 5368 5370 5374 5379 5381 5385 5389 5395 5402 5409 5417 5426 5437 5447 5459 5472 5484 5495 5506 5516 5528 5539 5549 5559 5568 5575 5581 5585 5588 5590 5593 5596 5598
5342 5341 5360 5371 5359 5358 5365 5365 5362 5362 5362 5362 5364 5367 5369 5372 5377 5382 5388 5395 5402 5410 5420 5430 5440 5452 5464 5476 5486 5497 5507 5519 5531 5541 5550 5558 5566 5572 5576 5580 5583 5586 5588 5589
5355 5366 5372 5362 5359 5359 5356 5355 5355 5355 5355 5355 5357 5360 5363 5366 5370 5375 5381 5388 5395 5403 5413 5424 5433 5444 5455 5467 5478 5488 5499 5510 5521 5531 5540 5549 5556 5563 5568 5572 5576 5579 5581 5582
5345 5358 5359 5354 5352 5349 5347 5347 5347 5346 5346 5347 5350 5354 5357 5361 5365 5369 5374 5381 5388 5396 5407 5417 5427 5435 5446 5457 5468 5480 5491 5501 5511 5520 5530 5539 5546 5553 5558 5564 5568 5571 5573 5574
5345 5355 5352 5351 5347 5345 5343 5341 5338 5339 5339 5340 5342 5346 5350 5354 5358 5363 5367 5373 5380 5389 5398 5409 5419 5428 5438 5448 5460 5471 5481 5491 5501 5510 5519 5528 5535 5542 5548 5555 5562 5565 5567 5569
5350 5353 5347 5350 5345 5340 5337 5335 5334 5334 5334 5335 5335 5338 5342 5346 5351 5355 5360 5366 5373 5381 5390 5400 5410 5420 5430 5440 5450 5461 5471 5481 5491 5500 5508 5515 5522 5528 5535 5542 5548 5552 5556 5559
5348 5345 5341 5340 5337 5333 5330 5329 5327 5327 5327 5328 5329 5331 5334 5339 5343 5347 5352 5358 5365 5372 5381 5391 5401 5412 5421 5430 5440 5451 5462 5471 5481 5490 5497 5504 5511 5518 5523 5528 5534 5539 5544 5547
5337 5333 5331 5331 5329 5325 5322 5320 5319 5319 5320 5321 5322 5324 5327 5331 5335 5340 5345 5351 5357 5364 5373 5383 5393 5403 5412 5421 5431 5442 5452 5461 5471 5480 5487 5494 5501 5507 5513 5519 5523 5527 5531 5535
5330 5326 5325 5324 5320 5316 5314 5312 5312 5313 5313 5314 5315 5317 5320 5324 5328 5333 5338 5343 5349 5358 5366 5375 5384 5393 5402 5411 5421 5433 5443 5453 5463 5470 5477 5484 5491 5497 5502 5507 5512 5517 5520 5521
5323 5319 5315 5313 5311 5309 5306 5304 5305 5306 5306 5306 5307 5310 5313 5316 5321 5325 5329 5334 5341 5350 5358 5365 5374 5383 5392 5401 5412 5423 5434 5442 5451 5460 5467 5474 5481 5487 5492 5497 5502 5507 5511 5512
5313 5311 5308 5307 5304 5302 5299 5297 5297 5297 5297 5298 5300 5302 5305 5309 5314 5319 5323 5328 5334 5341 5349 5357 5366 5374 5383 5393 5403 5414 5424 5433 5441 5450 5457 5465 5472 5478 5483 5487 5492 5496 5499 5501
5309 5306 5303 5299 5296 5293 5291 5289 5289 5289 5289 5290 5292 5295 5298 5302 5307 5312 5317 5322 5328 5335 5343 5349 5357 5366 5375 5385 5395 5405 5415 5424 5433 5441 5448 5455 5462 5468 5473 5477 5481 5485 5486 5488
5296 5294 5291 5289 5287 5285 5284 5282 5282 5282 5282 5283 5285 5288 5292 5295 5299 5304 5309 5315 5323 5330 5337 5343 5350 5359 5369 5379 5387 5398 5406 5415 5424 5432 5438 5445 5451 5457 5462 5467 5470 5473 5475 5477
5286 5284 5281 5279 5278 5277 5276 5275 5275 5275 5276 5277 5279 5283 5287 5291 5294 5299 5304 5310 5318 5324 5330 5336 5344 5353 5362 5372 5380 5390 5399 5407 5415 5422 5429 5435 5441 5446 5451 5455 5458 5461 5463 5466
5277 5275 5273 5271 5270 5269 5268 5268 5268 5269 5270 5271 5273 5277 5281 5285 5289 5294 5300 5308 5315 5318 5324 5331 5339 5347 5355 5365 5374 5383 5391 5399 5407 5414 5420 5426 5431 5436 5440 5444 5447 5450 5452 5454
5269 5267 5265 5263 5263 5262 5262 5262 5263 5264 5265 5267 5270 5272 5276 5280 5285 5290 5295 5301 5308 5313 5319 5326 5334 5341 5349 5358 5367 5376 5384 5391 5399 5405 5411 5417 5422 5427 5431 5435 5437 5440 5442 5444
5262 5260 5258 5257 5256 5256 5256 5257 5258 5259 5261 5263 5265 5268 5272 5276 5280 5286 5293 5298 5303 5308 5314 5322 5328 5336 5343 5351 5360 5369 5377 5384 5391 5398 5404 5409 5414 5418 5422 5425 5428 5431 5433 5435
5255 5253 5251 5250 5248 5249 5251 5253 5253 5255 5257 5259 5261 5263 5267 5272 5277 5282 5287 5292 5298 5304 5310 5317 5323 5331 5338 5345 5354 5362 5370 5377 5384 5390 5396 5401 5405 5409 5413 5416 5420 5423 5425 5427
5247 5245 5243 5242 5245 5247 5248 5249 5249 5251 5254 5257 5259 5262 5264 5269 5273 5279 5283 5289 5294 5300 5306 5313 5319 5326 5333 5341 5348 5356 5364 5371 5378 5384 5389 5394 5397 5401 5404 5408 5412 5414 5416 5418
5241 5241 5241 5240 5240 5242 5243 5245 5247 5250 5252 5255 5258 5261 5264 5267 5271 5276 5281 5286 5291 5297 5303 5309 5315 5322 5330 5337 5344 5351 5357 5364 5370 5377 5382 5386 5390 5394 5397 5400 5403 5406 5408 5410
5235 5235 5235 5236 5237 5238 5239 5241 5244 5246 5249 5252 5255 5258 5262 5266 5270 5275 5279 5284 5290 5296 5301 5307 5313 5319 5326 5333 5340 5346 5353 5359 5364 5370 5375 5379 5383 5387 5390 5393 5396 5398 5399 5401